Hurricane Symbol View the latest observations near Atlantic Remnants Of Alberto.

Station LAMV3 - 9751381 - Lameshur Bay, St John, VI Image indicating link to RSS feed of recent meteorological observations for station LAMV3


Conditions at LAMV3 as of
(4:18 pm AST)
2018 GMT on 06/20/2024:
     

Click on the graph icon in the table below to see a time series plot of the last five days of that observation.

5-day plot - Atmospheric Pressure Atmospheric Pressure (PRES):29.95 in
5-day plot - Air Temperature Air Temperature (ATMP): 86.0 °F
NOS Water Level Observation Network Water Level
Previous observations
TIME
(AST)
5-day plot - Wind Direction
WDIR
 
5-day plot - Wind Speed
WSPD
kts
5-day plot - Wind Gust
GST
kts
5-day plot - Wave Height
WVHT
ft
5-day plot - Dominant Wave Period
DPD
sec
5-day plot - Average Wave Period
APD
sec
5-day plot - Mean Wave Direction
MWD
 
5-day plot - Atmospheric Pressure
PRES
in
5-day plot - Pressure Tendency
PTDY
in
5-day plot - Air Temperature
ATMP
°F
5-day plot - Water Temperature
WTMP
°F
5-day plot - Dew Point
DEWP
°F
5-day plot - Salinity
SAL
psu
5-day plot - Visibility
VIS
nmi
5-day plot - Tide (above MLLW)
TIDE
ft
2024-06-20 04:12 pm-------29.95- 86.0-----
2024-06-20 04:06 pm-------29.95- 86.2-----
2024-06-20 04:00 pm-------29.95-0.04 86.0-----
2024-06-20 03:54 pm-------29.96- 86.0-----
2024-06-20 03:48 pm-------29.95-------
2024-06-20 03:42 pm-------29.96- 86.0-----
2024-06-20 03:36 pm-------29.96- 85.8-----
2024-06-20 03:30 pm-------29.96-------
2024-06-20 03:24 pm-------29.96-------
2024-06-20 03:18 pm-------29.96- 86.0-----
2024-06-20 03:12 pm-------29.96- 85.8-----
2024-06-20 03:06 pm-------29.96- 86.0-----
2024-06-20 03:00 pm-------29.96-0.04 85.8-----
2024-06-20 02:54 pm-------29.96- 86.0-----
2024-06-20 02:48 pm-------29.96- 85.8-----
2024-06-20 02:42 pm-------29.96- 85.8-----
2024-06-20 02:36 pm-------29.97- 86.2-----
2024-06-20 02:30 pm-------29.96- 85.8-----
2024-06-20 02:24 pm-------29.97- 86.0-----
2024-06-20 02:18 pm-------29.97- 86.2-----
2024-06-20 02:12 pm-------29.97- 85.8-----
2024-06-20 02:06 pm-------29.97- 85.8-----
2024-06-20 02:00 pm-------29.97-0.02 85.6-----
2024-06-20 01:54 pm-------29.98- 85.6-----
2024-06-20 01:48 pm-------29.98-------
2024-06-20 01:42 pm-------29.98- 85.5-----
2024-06-20 01:36 pm-------29.98- 85.5-----
2024-06-20 01:30 pm-------29.98- 85.5-----
2024-06-20 01:24 pm-------29.98- 85.5-----
2024-06-20 01:18 pm-------29.98- 85.5-----
2024-06-20 01:12 pm-------29.98- 85.5-----
2024-06-20 01:06 pm-------29.99- 85.3-----
2024-06-20 01:00 pm-------29.99+0.00 85.3-----
2024-06-20 12:54 pm-------29.99- 85.5-----
2024-06-20 12:48 pm-------29.99- 85.3-----
2024-06-20 12:42 pm-------29.99- 85.5-----
2024-06-20 12:36 pm-------29.99- 86.0-----
2024-06-20 12:30 pm-------29.99- 86.4-----
2024-06-20 12:24 pm-------29.99- 86.2-----
2024-06-20 12:18 pm-------29.99-------
2024-06-20 12:12 pm-------29.99- 86.0-----
2024-06-20 12:06 pm-------30.00- 86.2-----
2024-06-20 12:00 pm-------30.00+0.00 86.5-----
2024-06-20 11:54 am-------29.99- 86.4-----
2024-06-20 11:48 am-------29.99- 87.3-----
2024-06-20 11:42 am-------30.00- 86.7-----
2024-06-20 11:36 am-------30.00- 86.5-----
2024-06-20 11:30 am-------30.00- 86.7-----
2024-06-20 11:24 am-------29.99- 86.7-----
2024-06-20 11:18 am-------29.99-------
2024-06-20 11:12 am-------30.00- 86.2-----
2024-06-20 11:06 am-------30.00- 85.8-----
2024-06-20 11:00 am-------30.00+0.04 85.8-----
2024-06-20 10:54 am-------29.99- 86.2-----
2024-06-20 10:48 am-------30.00- 85.6-----
2024-06-20 10:42 am-------30.00- 85.3-----
2024-06-20 10:36 am-------30.00- 85.1-----
2024-06-20 10:30 am-------30.00- 85.5-----
2024-06-20 10:24 am-------30.00- 85.6-----
2024-06-20 10:18 am-------30.00-------
2024-06-20 10:12 am-------29.99- 85.5-----
2024-06-20 10:06 am-------29.99- 84.9-----
2024-06-20 10:00 am-------29.99+0.04 84.9-----
2024-06-20 09:54 am-------29.99- 85.1-----
2024-06-20 09:48 am-------29.99- 84.7-----
2024-06-20 09:42 am-------29.99- 84.4-----
2024-06-20 09:36 am-------29.99- 84.6-----
2024-06-20 09:30 am-------29.98- 84.2-----
2024-06-20 09:24 am-------29.98- 83.7-----
2024-06-20 09:18 am-------29.98- 82.2-----
2024-06-20 09:12 am-------29.98- 81.7-----
2024-06-20 09:06 am-------29.98- 81.0-----
2024-06-20 09:00 am-------29.99+0.06 80.4-----
2024-06-20 08:54 am-------29.98- 85.3-----
2024-06-20 08:48 am-------29.98-------
2024-06-20 08:42 am-------29.98- 86.0-----
2024-06-20 08:36 am-------29.97- 85.8-----
2024-06-20 08:30 am-------29.97- 85.6-----
2024-06-20 08:24 am-------29.97- 85.5-----
2024-06-20 08:18 am-------29.97- 84.9-----
2024-06-20 08:12 am-------29.96- 84.9-----
2024-06-20 08:06 am-------29.96- 85.1-----
2024-06-20 08:00 am-------29.96+0.04 85.5-----
2024-06-20 07:54 am-------29.96- 85.5-----
2024-06-20 07:48 am-------29.96-------
2024-06-20 07:42 am-------29.96- 84.9-----
2024-06-20 07:36 am-------29.96- 85.3-----
2024-06-20 07:30 am-------29.96- 85.5-----
2024-06-20 07:24 am-------29.95- 85.1-----
2024-06-20 07:18 am-------29.95- 84.9-----
2024-06-20 07:12 am-------29.95- 84.9-----
2024-06-20 07:06 am-------29.95- 84.9-----
2024-06-20 07:00 am-------29.95+0.04 84.7-----
2024-06-20 06:54 am-------29.94- 84.6-----
2024-06-20 06:48 am-------29.94- 84.4-----
2024-06-20 06:42 am-------29.94- 84.4-----
2024-06-20 06:36 am-------29.94- 84.4-----
2024-06-20 06:30 am-------29.94- 84.2-----
2024-06-20 06:24 am-------29.93- 84.2-----
2024-06-20 06:18 am-------29.93-------
2024-06-20 06:12 am-------29.93- 83.8-----
2024-06-20 06:06 am-------29.93- 83.8-----
2024-06-20 06:00 am-------29.93+0.02 83.8-----
2024-06-20 05:54 am-------29.93- 84.0-----
2024-06-20 05:48 am-------29.93- 84.0-----
2024-06-20 05:42 am-------29.93- 83.8-----
2024-06-20 05:36 am-------29.93- 83.7-----
2024-06-20 05:30 am-------29.92- 83.7-----
2024-06-20 05:24 am-------29.92- 83.8-----
2024-06-20 05:18 am-------29.92- 83.7-----
2024-06-20 05:12 am-------29.92- 83.8-----
2024-06-20 05:06 am-------29.92- 83.8-----
2024-06-20 05:00 am-------29.92+0.00 83.8-----
2024-06-20 04:54 am-------29.92- 83.5-----
2024-06-20 04:48 am-------29.91-------
2024-06-20 04:42 am-------29.91- 82.8-----
2024-06-20 04:36 am-------29.91- 82.8-----
2024-06-20 04:30 am-------29.91- 83.3-----
2024-06-20 04:24 am-------29.91- 83.1-----
2024-06-20 04:18 am-------29.91-------
2024-06-20 04:12 am-------29.91- 82.9-----
2024-06-20 04:06 am-------29.91- 82.9-----
2024-06-20 04:00 am-------29.91-0.04 83.1-----
2024-06-20 03:54 am-------29.91- 83.3-----
2024-06-20 03:48 am-------29.91-------
2024-06-20 03:42 am-------29.91- 83.3-----
2024-06-20 03:36 am-------29.91- 82.9-----
2024-06-20 03:30 am-------29.91- 82.9-----
2024-06-20 03:24 am-------29.91- 83.5-----
2024-06-20 03:18 am-------29.91-------
2024-06-20 03:12 am-------29.91- 82.9-----
2024-06-20 03:06 am-------29.91- 82.0-----
2024-06-20 03:00 am-------29.91-0.05 81.9-----
2024-06-20 02:54 am-------29.91- 81.0-----
2024-06-20 02:48 am-------29.91-------
2024-06-20 02:42 am-------29.91- 80.4-----
2024-06-20 02:36 am-------29.91- 81.0-----
2024-06-20 02:30 am-------29.91- 81.3-----
2024-06-20 02:24 am-------29.91- 81.5-----
2024-06-20 02:18 am-------29.92-------
2024-06-20 02:12 am-------29.92- 82.2-----
2024-06-20 02:06 am-------29.92- 82.8-----
2024-06-20 02:00 am-------29.92-0.05 82.8-----
2024-06-20 01:54 am-------29.93- 83.1-----
2024-06-20 01:48 am-------29.93- 83.1-----
2024-06-20 01:42 am-------29.93- 82.0-----
2024-06-20 01:36 am-------29.93- 81.7-----
2024-06-20 01:30 am-------29.94- 82.2-----
2024-06-20 01:24 am-------29.94- 84.0-----
2024-06-20 01:18 am-------29.94-------
2024-06-20 01:12 am-------29.94- 83.8-----
2024-06-20 01:06 am-------29.94- 83.5-----
2024-06-20 01:00 am-------29.94-0.02 84.2-----
2024-06-20 12:54 am-------29.95- 84.4-----
2024-06-20 12:48 am-------29.95-------
2024-06-20 12:42 am-------29.95- 84.4-----
2024-06-20 12:36 am-------29.95- 84.2-----
2024-06-20 12:30 am-------29.95- 84.0-----
2024-06-20 12:24 am-------29.96- 84.0-----
2024-06-20 12:18 am-------29.96- 84.0-----
2024-06-20 12:12 am-------29.96- 83.8-----
2024-06-20 12:06 am-------29.96- 84.0-----
2024-06-20 12:00 am-------29.96+0.01 84.0-----
2024-06-19 11:54 pm-------29.96- 84.0-----
2024-06-19 11:48 pm-------29.96- 84.2-----
2024-06-19 11:42 pm-------29.97- 84.2-----
2024-06-19 11:36 pm-------29.97- 83.8-----
2024-06-19 11:30 pm-------29.97- 82.6-----
2024-06-19 11:24 pm-------29.97- 83.3-----
2024-06-19 11:18 pm-------29.97- 83.3-----
2024-06-19 11:12 pm-------29.97- 83.1-----
2024-06-19 11:06 pm-------29.97- 83.5-----
2024-06-19 11:00 pm-------29.97+0.04 83.1-----
2024-06-19 10:54 pm-------29.97- 83.1-----
2024-06-19 10:48 pm-------29.97- 82.6-----
2024-06-19 10:42 pm-------29.97- 84.2-----
2024-06-19 10:36 pm-------29.96- 84.2-----
2024-06-19 10:30 pm-------29.96- 84.2-----
2024-06-19 10:24 pm-------29.96- 84.2-----
2024-06-19 10:18 pm-------29.97- 83.7-----
2024-06-19 10:12 pm-------29.96- 83.8-----
2024-06-19 10:06 pm-------29.96- 84.4-----
2024-06-19 10:00 pm-------29.97+0.05 83.8-----
2024-06-19 09:54 pm-------29.97- 83.5-----
2024-06-19 09:48 pm-------29.96-------
2024-06-19 09:42 pm-------29.96- 83.8-----
2024-06-19 09:36 pm-------29.96- 83.5-----
2024-06-19 09:30 pm-------29.96- 82.8-----
2024-06-19 09:24 pm-------29.96- 80.4-----
2024-06-19 09:18 pm-------29.96-------
2024-06-19 09:12 pm-------29.96- 80.4-----
2024-06-19 09:06 pm-------29.95- 80.6-----
2024-06-19 09:00 pm-------29.95+0.04 79.0-----
2024-06-19 08:54 pm-------29.95- 78.4-----
2024-06-19 08:48 pm-------29.95- 79.2-----
2024-06-19 08:42 pm-------29.95- 79.7-----
2024-06-19 08:36 pm-------29.95- 79.9-----
2024-06-19 08:30 pm-------29.96- 82.8-----
2024-06-19 08:24 pm-------29.93- 83.8-----
2024-06-19 08:18 pm-------29.94- 84.0-----
2024-06-19 08:12 pm-------29.93- 83.8-----
2024-06-19 08:06 pm-------29.93- 83.3-----
2024-06-19 08:00 pm-------29.93+0.03 83.8-----
2024-06-19 07:54 pm-------29.93- 83.3-----
2024-06-19 07:48 pm-------29.92- 83.1-----
2024-06-19 07:42 pm-------29.92- 84.0-----
2024-06-19 07:36 pm-------29.92- 83.7-----
2024-06-19 07:30 pm-------29.92- 82.9-----
2024-06-19 07:24 pm-------29.91- 83.1-----
2024-06-19 07:18 pm-------29.92- 83.1-----
2024-06-19 07:12 pm-------29.92- 83.3-----
2024-06-19 07:06 pm-------29.92- 83.3-----
2024-06-19 07:00 pm-------29.92+0.01 83.8-----
2024-06-19 06:54 pm-------29.92- 83.5-----
2024-06-19 06:48 pm-------29.92-------
2024-06-19 06:42 pm-------29.92-------
2024-06-19 06:36 pm-------29.92-------
2024-06-19 06:30 pm-------29.92- 83.5-----
2024-06-19 06:24 pm-------29.92- 84.0-----
2024-06-19 06:18 pm-------29.92- 84.2-----
2024-06-19 06:12 pm-------29.91- 84.0-----
2024-06-19 06:06 pm-------29.92- 84.4-----
2024-06-19 06:00 pm-------29.91-0.01 84.0-----
2024-06-19 05:54 pm-------29.91- 84.0-----
2024-06-19 05:48 pm-------29.90- 83.5-----
2024-06-19 05:42 pm-------29.90- 83.3-----
2024-06-19 05:36 pm-------29.91- 83.5-----
2024-06-19 05:30 pm-------29.91- 83.8-----
2024-06-19 05:24 pm-------29.91- 83.3-----
2024-06-19 05:18 pm-------29.91- 82.9-----
2024-06-19 05:12 pm-------29.91- 82.9-----
2024-06-19 05:06 pm-------29.90- 83.1-----
2024-06-19 05:00 pm-------29.90-0.03 83.1-----
2024-06-19 04:54 pm-------29.91- 82.6-----